Location: Carri�res
(48.9069°N, 2.1792°E)
Time: 13:27:37
(UTC+00:00)

SL-14 R/B - Pass Details

Date: 17 January 2021
Orbit: 520 x 552 km, 82.4° (Epoch: 25 February)

Event Time Altitude Azimuth Distance (km) Brightness Sun altitude
Rises 17:25:04 0° 175° (S) 2,637 7.0 -9.6°
Reaches altitude 10° 17:27:13 10° 170° (S) 1,757 6.0 -10.0°
Maximum altitude 17:30:57 50° 95° (E) 675 3.4 -10.6°
Drops below altitude 10° 17:34:45 10° 19° (NNE) 1,787 5.6 -11.1°
Enters shadow 17:36:33 - 15° (NNE) 2,524 6.4 -11.4°
